OPS 1593 (TRANSIT 11)

Satellite information

Favourite Embed

Satellite Type and Status

PAYLOADIN ORBIT

Key statistics

Satellite OPS 1593 (TRANSIT 11) at a glance.

Uptime

21824

Days in orbit

Revolutions

≈ 13.7

Per day

Orbit

SSO

Sun Synchronous Orbit

Inclination

90.2

Latest

Satellite identification and parameters

Extended collection of information and parameters for OPS 1593 (TRANSIT 11).

Object identification

Identified? True

Debris? False

Object name: OPS 1593 (TRANSIT 11)

International designator: 1966-005A

Object number (NORAD): 1952

Object ID (CCSDS): 1952

Country: UNITED STATES OF AMERICA (US)

Current information (Y/N): Y

RCS size: LARGE

Orbital parameters

Period: 105.26 minutes

Inclination: 90.1515 deg

SMA: 7384.761 km

Apoapsis: 1166.661 km

Periapsis: 846.591 km

RAAN: 348.2426 deg

Eccentricy: 0.02167097

Argument of periapsis: 350.5639 deg

Mean anomaly: 9.1478 deg

Mean motion: 13.68037686 rev/day

Mean motion (dot): 0.00000224 rev/day2

B* drag term: 0.00021567093 1/REarth

Two-line elements (TLE)

Creation date: Oct. 28, 2025, 7:11 p.m.

Reference frame: TEME

Reference center: EARTH

Epoch: Oct. 28, 2025, 1:44 p.m. UTC

TLE line 0: 0 OPS 1593 (TRANSIT 11)

TLE line 1: 1 01952U 66005A 25301.57260587 .00000224 00000-0 21567-3 0 9997

TLE line 2: 2 01952 90.1515 348.2426 0216710 350.5639 9.1478 13.68037686974486

Live tracking on map

Real-time ground track for satellite OPS 1593 (TRANSIT 11).

In-orbit conjunctions

There are no conjunctions computed for OPS 1593 (TRANSIT 11), at the moment. Check back to stay up to date, as we update our databases every day.

Go to all conjunctions

Associated space launch

The Transit-O series of satellites that closely followed the design of Transit 5C-1 were also called “Oscars” (Oscar is the phonetic alphabet for “O”, i. e., operational). They were also called NNS (Navy Navigation Satellite) or shortened NavSat.

OPS 1593 (TRANSIT 11) was lifted into orbit during the mission ‘Scout A | Transit-O 7’, on board a Scout A space rocket.

The launch took place on Jan. 28, 1966, 5:06 p.m. from Space Launch Complex 5.

For more information about the launch, click the button.

Launch to space Scout A | Transit-O 7
Scout A | Transit-O 7

Agency: N/A

Status: Launch Successful

Launch date: Jan. 28, 1966, 5:06 p.m. UTC

Rocket: Scout A

Launch pad: Space Launch Complex 5

Location: Vandenberg SFB, CA, USA

...

Latest news about this satellite

There are no fresh news available about this satellite. Check back as we update our databases every day.


Newsletter sign-up

Weekly statistics, charts and insights to help you stay on top of the space industry.